Terug naar catalogus

MMS 4

ActiefWetenschapHEO
NORAD 40485·PAYLOAD·🇺🇸 United States

Gelanceerd Mar 13, 2015 vanaf Cape Canaveral Space Force Station

Loading…

Volgende Passages (komende 24 uur)

TLE

VersSource: Space-Track

Epoch: Sep 14, 2026, 16:00 UTC

1 40485U 15011D   26257.66671296 -.00001854  00000-0  00000-0 0  9993
2 40485  72.9505 347.7687 8258147 169.4133  66.1843  0.28336063  1410

Volg MMS 4 in realtime met AllMySat

Download on the App Store